EHI
0 0 0 0 0 0 0 0 0 0 0 0 0 1 5 11 15 17 20 27 29 26 27 29 24 16 14 17 18 14 13 17 20 19 17 15 15 14 9 3 2 2 2 2
0 0 0 0 0 0 0 0 0 0 0 0 0 1 6 11 14 16 17 22 25 25 26 26 22 16 15 16 16 14 13 16 18 18 17 16 14 13 9 4 1 1 1 1
0 0 0 0 0 0 0 0 0 0 0 0 0 2 7 11 13 13 13 15 19 22 24 24 19 16 15 14 13 12 13 15 16 16 15 13 11 10 8 5 2 0 1 2
0 0 0 0 0 0 0 0 0 0 0 0 0 1 5 8 9 9 11 13 16 18 20 21 19 15 12 10 9 9 11 13 15 14 12 9 8 7 6 4 2 0 1 2
0 0 0 0 0 0 0 0 0 0 0 0 0 0 2 3 4 5 9 13 16 16 16 18 17 14 10 7 6 6 8 10 11 10 8 7 6 6 4 2 2 1 1 1
0 0 0 0 0 0 0 0 0 0 0 0 0 0 0 0 0 2 7 13 16 14 13 14 16 14 9 5 4 4 6 9 8 6 4 4 4 4 2 2 2 2 1 1
0 0 0 0 0 0 0 0 0 0 0 0 0 0 0 0 0 1 5 12 15 12 11 12 15 15 11 7 5 5 7 9 7 5 3 2 2 1 1 1 2 2 1 0
0 0 0 0 0 0 0 0 0 0 0 0 0 0 0 0 0 0 5 11 14 13 11 11 12 14 12 10 8 7 8 9 9 7 4 3 1 0 0 1 1 1 0 0
0 0 0 0 0 0 0 0 0 0 0 0 0 0 0 0 0 1 5 10 14 14 12 11 10 10 12 12 10 9 9 9 10 9 7 4 2 1 1 2 1 0 0 0
0 0 0 0 0 0 0 0 0 0 0 0 0 0 0 0 0 2 6 10 12 12 11 10 7 7 10 12 10 9 9 9 9 9 7 4 2 2 2 2 2 0 0 0
0 0 0 0 0 0 0 0 0 0 0 0 0 0 0 0 1 4 7 9 10 10 9 8 6 5 7 9 10 10 10 9 9 9 7 5 3 2 2 3 2 1 0 0
0 0 0 0 0 0 0 0 0 0 0 0 0 0 0 0 2 6 11 13 13 11 10 8 6 3 4 6 8 9 10 10 11 11 9 6 4 3 3 3 2 2 1 0
0 0 0 0 0 0 0 0 0 0 0 0 0 0 0 1 3 9 19 25 24 19 15 13 10 6 4 5 6 7 9 11 13 13 12 9 6 4 3 3 2 3 3 2
0 0 0 0 0 0 0 0 0 0 0 0 0 0 1 3 7 14 27 35 33 26 23 20 17 13 10 10 10 10 11 13 14 14 14 12 9 7 6 6 6 6 5 5
0 0 0 0 0 0 0 0 0 0 0 0 0 0 1 5 10 18 30 38 35 29 27 25 23 21 19 19 18 18 19 19 18 17 16 15 14 11 11 12 12 9 6 5
0 0 0 0 0 0 0 0 0 0 0 0 0 0 2 7 13 21 29 34 35 31 30 32 31 28 27 28 27 26 26 26 25 21 18 17 17 17 15 14 13 11 8 7
0 0 0 0 0 0 0 0 0 0 0 0 0 1 4 8 13 20 25 30 33 33 36 40 40 37 34 32 30 28 27 28 28 24 19 19 20 19 16 15 14 13 13 12
0 0 0 0 0 0 0 0 0 0 0 0 0 2 7 11 15 18 23 28 32 36 41 44 44 40 35 31 29 27 26 26 26 23 20 20 20 18 16 17 16 15 14 12
0 0 0 0 0 0 0 0 0 0 0 2 3 5 9 13 15 17 23 31 35 39 44 43 39 35 31 29 28 27 25 24 22 20 19 19 18 17 16 15 14 12 9 7
0 0 0 0 0 0 0 0 0 0 2 5 9 10 10 11 14 21 29 34 38 40 41 38 33 31 30 30 29 28 25 22 20 18 17 14 13 13 11 10 8 6 3 2
0 0 0 0 0 0 0 0 0 0 3 7 10 13 13 12 18 27 33 33 33 33 33 30 26 26 28 28 27 25 22 18 16 15 13 9 6 5 5 5 4 2 0 0
0 0 0 0 0 0 0 0 0 1 3 5 7 10 14 16 20 26 28 26 24 23 22 20 19 20 22 22 19 17 13 11 10 10 7 4 1 1 2 3 2 1 0 0
0 0 0 0 0 0 0 0 0 0 2 2 3 6 9 11 13 17 20 18 16 15 14 13 13 14 14 13 11 8 5 4 4 4 3 1 0 1 1 1 1 0 0 0
0 0 0 0 0 0 0 0 0 0 0 0 1 2 4 4 6 11 15 14 13 11 10 9 9 8 6 6 5 3 2 1 2 2 1 0 0 0 0 0 0 0 0 0
0 0 0 0 0 0 0 0 0 1 1 0 0 0 1 2 3 7 10 9 8 7 5 4 3 2 1 1 1 1 1 0 0 0 0 0 0 0 0 0 0 0 0 0
0 0 0 0 0 0 0 0 1 2 2 1 0 0 0 1 1 3 5 5 4 3 2 1 0 0 0 0 0 0 0 0 0 0 0 0 0 0 0 0 0 0 0 0
Wind_Speed
11 12 14 11 9 8 8 9 10 7 5 8 8 7 3 3 5 6 7 8 8 8 8 8 9 9 10 11 12 12 12 12 10 8 8 7 6 5 4 4 5 5 5 5
11 16 15 10 7 9 10 12 10 6 3 7 8 8 2 3 5 5 6 8 8 8 9 9 9 10 10 11 11 11 12 12 11 8 6 5 6 5 4 4 5 5 5 6
18 7 7 10 12 12 12 12 10 9 8 7 8 8 4 5 5 6 7 8 8 9 10 10 10 10 11 11 12 11 12 12 11 10 7 6 5 4 5 5 5 5 6 6
15 13 8 11 13 12 12 9 9 9 10 7 5 10 2 5 6 7 8 9 9 9 10 10 10 10 11 11 11 11 11 11 11 11 10 11 8 7 7 6 5 6 6 6
11 10 12 14 13 11 10 5 7 9 10 11 7 9 4 4 5 7 8 9 9 10 10 10 10 10 10 11 11 11 11 11 11 11 12 11 9 7 6 6 7 6 6 6
12 7 9 10 9 9 7 7 8 9 10 11 6 8 6 1 1 3 8 9 9 10 10 10 9 9 8 9 10 10 11 10 11 11 11 11 10 8 8 8 8 7 6 6
14 15 14 12 11 10 11 11 9 10 9 7 1 6 4 2 0 2 5 9 10 10 10 10 10 10 9 10 11 11 11 11 11 12 12 11 10 10 10 9 8 7 6 6
12 11 13 13 16 12 13 14 11 9 8 5 4 6 2 2 2 3 5 8 10 11 11 11 11 10 10 11 11 11 11 11 11 12 11 11 11 8 8 9 7 8 6 6
8 6 6 8 10 12 11 13 13 12 11 10 6 4 3 3 5 6 7 9 10 11 11 11 11 11 11 11 11 11 11 11 11 12 11 11 11 9 8 9 8 7 5 6
8 7 8 7 8 10 10 8 7 10 10 10 7 6 3 3 5 7 8 9 10 11 12 12 12 12 11 11 11 11 11 11 11 11 11 10 10 10 8 8 8 6 6 6
10 9 8 9 11 11 10 10 10 9 9 10 9 4 3 1 4 6 8 9 10 12 13 12 12 12 12 12 12 11 11 11 11 11 10 10 9 9 9 8 8 7 7 7
7 8 10 10 5 5 10 12 11 10 10 9 10 5 3 1 3 5 7 9 10 11 12 12 12 12 12 12 12 11 11 11 11 11 10 9 9 9 9 9 8 7 7 7
3 6 9 10 9 9 10 12 12 11 10 10 12 6 5 4 5 6 8 10 11 11 12 12 12 12 12 12 12 12 11 11 11 11 10 10 10 10 9 8 7 7 7 6
5 7 10 12 5 3 8 10 11 12 12 12 13 11 5 5 6 8 9 11 12 12 12 12 11 11 11 11 11 11 11 11 11 11 11 10 10 9 8 7 7 6 6 6
5 9 10 11 9 9 11 11 11 14 15 15 13 12 8 4 6 8 10 12 12 12 12 12 11 10 10 10 10 10 10 11 11 11 10 10 9 9 8 7 7 6 5 5
4 8 9 12 12 12 14 14 15 16 16 16 16 14 7 2 5 8 11 13 13 13 13 12 11 11 10 10 10 10 9 10 10 10 10 10 9 9 8 7 6 5 5 4
6 7 9 13 12 13 17 17 18 18 17 16 17 13 5 5 6 8 10 12 12 12 12 12 11 10 10 9 9 9 9 9 9 9 9 9 9 8 7 7 6 6 5 4
7 8 7 11 11 17 11 6 10 15 17 16 15 10 5 4 4 4 6 9 10 11 11 11 10 10 10 10 10 9 9 9 9 9 8 8 8 8 8 7 6 6 5 5
7 8 8 10 14 14 12 8 8 12 14 11 12 9 4 4 5 6 6 6 8 9 9 9 9 9 9 10 10 11 10 10 10 9 8 8 8 8 8 8 7 7 6 7
6 8 10 10 12 12 6 2 4 9 12 4 5 5 5 8 8 6 8 8 9 9 9 10 10 11 10 10 11 12 11 11 10 9 9 8 8 9 9 9 8 8 8 8
7 8 11 13 13 10 4 5 4 10 3 7 5 3 5 7 1 10 12 11 10 11 11 12 12 11 11 11 12 12 12 11 11 11 11 11 10 10 10 10 9 9 8 8
7 7 9 9 12 9 4 4 5 6 8 7 5 3 1 5 10 13 13 12 12 12 13 13 13 12 11 12 14 15 14 12 12 12 12 12 11 9 10 10 9 8 8 8
7 6 5 7 6 4 4 5 7 9 9 7 4 1 6 10 11 13 13 13 13 13 13 13 15 14 12 12 14 15 13 12 13 13 13 12 11 10 9 9 9 7 5 5
6 5 7 9 9 9 10 9 8 7 7 5 1 5 9 12 14 14 13 13 14 14 13 13 15 15 14 13 13 14 13 13 13 13 12 10 10 10 9 6 6 6 5 5
6 5 8 11 10 9 8 7 7 4 2 1 4 7 10 14 16 15 14 14 13 13 13 13 14 15 15 13 13 12 11 12 13 12 10 10 10 10 9 9 9 8 9 7
5 6 7 7 6 6 6 6 4 1 2 5 8 10 12 14 16 16 14 13 13 13 13 14 14 14 14 13 12 11 10 10 10 10 8 7 7 7 7 8 9 14 11 12
Wind_Direction
199 222 226 227 236 274 283 280 283 296 322 302 298 304 296 205 210 203 193 188 188 188 179 175 175 178 178 174 174 178 175 172 168 168 168 168 168 167 168 169 161 167 169 172
204 228 235 241 243 251 256 266 273 281 311 295 299 293 258 209 218 219 204 194 191 182 174 176 178 179 181 176 177 179 179 176 176 172 167 167 160 167 164 162 158 170 174 180
221 223 221 227 229 239 248 258 279 298 301 254 281 270 202 183 201 205 207 200 192 187 185 180 182 183 184 181 180 179 177 175 176 165 157 152 151 162 169 167 165 171 177 184
232 233 224 230 231 238 248 252 272 282 284 289 299 301 266 182 203 204 200 193 190 185 183 180 181 186 187 184 180 178 176 174 172 168 172 174 176 176 178 175 163 168 181 184
218 222 224 231 236 239 255 275 269 274 277 280 263 282 312 178 223 205 194 189 186 183 181 179 181 180 180 178 178 176 174 175 175 178 178 181 182 177 167 167 161 176 175 182
240 220 236 240 237 238 239 239 243 249 257 262 278 288 300 1 283 195 180 180 180 177 177 177 175 170 171 173 174 172 172 176 175 178 182 186 180 173 168 174 172 182 176 179
230 230 228 234 237 217 221 236 238 234 234 254 188 271 299 18 243 224 182 176 175 175 174 173 171 170 172 175 175 175 175 178 179 181 184 185 181 179 182 183 182 186 179 177
215 221 211 216 228 231 220 234 248 263 268 273 202 263 335 85 155 176 170 165 170 175 174 172 171 170 170 172 174 175 176 179 179 181 182 183 182 187 188 188 184 188 187 177
224 214 168 206 220 231 223 232 249 260 267 276 271 266 243 178 188 182 167 165 173 173 171 170 170 170 169 170 174 176 176 177 177 178 178 181 186 192 187 179 192 188 183 174
245 241 195 182 204 217 247 242 231 245 258 265 263 259 277 202 197 181 176 173 171 170 170 169 169 170 170 170 173 174 176 178 177 177 180 180 183 187 184 188 188 185 182 178
237 243 215 196 216 205 200 217 235 248 261 271 277 284 48 283 208 189 176 170 168 169 168 167 167 169 169 168 171 175 178 178 177 179 180 178 179 180 181 185 187 186 187 184
221 246 246 225 219 270 237 232 226 242 246 252 275 285 92 148 185 181 168 161 162 164 163 163 164 166 169 170 171 174 177 178 177 175 172 174 173 175 181 185 188 189 191 194
199 235 238 217 202 204 228 231 237 244 256 254 259 262 130 151 175 175 165 159 159 162 162 163 163 167 171 172 174 176 178 177 172 170 171 172 174 176 182 185 186 191 193 198
257 248 258 266 292 218 222 225 229 237 244 249 252 269 233 197 190 178 167 163 161 163 163 165 164 168 171 172 174 175 177 174 170 169 170 172 176 176 176 179 183 189 192 198
267 251 254 271 282 274 264 253 239 239 253 265 271 273 274 232 205 184 171 167 165 164 166 166 166 166 168 169 170 173 174 171 170 169 169 172 171 169 172 173 178 180 186 193
263 271 266 261 260 263 262 257 251 248 251 257 265 268 276 246 191 181 179 175 172 170 168 166 165 165 168 168 167 168 170 169 168 169 169 165 162 163 165 166 169 170 176 182
247 255 262 261 259 262 253 249 250 250 249 252 257 262 238 216 196 187 182 180 176 172 167 165 163 162 161 162 161 161 159 156 157 158 156 153 155 155 155 159 158 157 153 144
252 258 258 263 259 251 259 278 271 266 262 258 260 267 252 233 186 176 181 180 172 165 161 158 155 151 151 151 150 147 146 146 144 143 144 144 145 144 142 138 134 129 123 120
234 240 251 255 252 256 259 261 268 269 265 264 262 256 220 154 157 165 161 162 157 151 143 139 140 141 141 141 139 136 135 135 133 134 135 136 136 133 128 123 120 115 111 103
202 223 244 245 254 258 266 334 311 276 258 296 292 257 203 190 215 159 138 135 129 127 126 126 127 126 125 129 132 131 129 126 125 123 121 120 120 119 117 114 111 107 105 102
205 215 233 246 250 256 304 336 277 249 299 11 341 292 225 220 310 116 126 122 120 118 118 118 117 114 114 119 121 117 113 110 110 109 107 104 104 106 106 103 102 103 102 98
247 240 231 240 245 248 17 308 280 329 343 335 328 306 191 107 109 120 120 120 119 117 115 112 107 103 106 111 110 105 101 103 104 103 99 98 99 99 101 100 98 97 103 106
242 260 270 256 266 340 343 310 310 308 305 309 306 139 134 131 130 124 120 118 115 112 109 107 106 101 98 100 104 105 106 108 106 102 99 98 96 93 97 101 102 102 99 96
241 256 260 263 265 281 290 291 290 290 291 292 212 153 142 137 130 124 120 115 112 109 108 108 106 102 97 94 96 101 107 108 106 104 102 102 100 97 89 86 87 84 79 82
277 260 255 258 272 284 286 300 302 301 312 98 124 135 136 133 128 122 116 112 109 106 104 102 101 101 100 98 97 99 104 107 106 105 105 103 98 94 88 74 54 63 58 47
262 263 266 276 299 296 305 324 329 348 105 109 111 111 115 121 121 117 110 107 105 104 103 102 102 101 101 100 97 97 101 104 107 107 106 106 106 105 106 105 90 59 68 71